Probability
52 23 26 26 19 10 0 0 0 0 0 6 6 6 6 3 3 10 13 23 29 39 58 68 71 71 68 65 68 74 74 71 71 71 74 74 74 71 68 68 68 65 58 55 58 58 52 58 58
23 23 19 39 16 0 0 0 0 0 0 3 6 10 10 16 23 16 19 32 29 35 52 58 68 68 74 71 71 71 71 68 74 71 68 71 68 68 68 71 71 68 74 71 58 52 48 55 61
13 19 35 35 10 0 0 0 0 0 0 3 3 10 6 23 29 16 16 29 26 29 39 58 74 74 65 71 68 71 65 68 68 68 68 65 61 68 68 65 65 68 68 68 61 55 45 48 52
19 35 35 23 3 3 0 0 3 10 10 6 6 6 10 13 23 16 19 23 23 29 52 65 77 74 77 77 71 68 68 65 65 65 61 61 58 55 58 65 65 65 65 65 61 45 48 48 55
19 32 16 6 3 0 0 0 3 13 10 6 10 6 10 13 19 16 23 23 23 26 52 61 81 87 84 74 77 68 68 68 61 61 61 61 65 65 65 68 58 58 61 68 58 55 52 45 52
32 23 3 3 0 0 0 0 10 10 10 10 10 6 6 6 10 23 19 19 23 26 48 68 81 87 87 77 71 61 58 55 55 61 55 61 68 68 65 68 65 61 52 61 58 52 52 48 45
23 13 0 0 0 0 0 3 6 6 10 10 6 6 6 6 10 13 10 23 23 26 35 48 65 77 81 77 77 74 71 65 65 71 71 61 58 61 68 68 65 58 52 52 55 52 48 55 58
23 0 0 0 0 0 3 3 6 3 6 10 6 6 6 6 6 6 6 13 16 26 26 35 42 45 45 65 81 77 74 65 68 68 71 68 61 58 65 65 68 65 61 52 52 52 55 58 65
13 3 0 0 0 3 3 3 3 10 6 6 6 3 6 13 13 10 10 10 10 16 19 23 29 26 26 32 68 77 71 71 68 71 74 68 45 35 48 61 68 61 61 68 55 55 61 77 71
3 3 0 0 0 0 3 3 6 6 3 10 6 10 10 10 6 10 10 13 13 16 16 19 23 23 23 19 23 32 45 42 29 16 26 23 23 16 39 48 68 68 71 65 71 68 68 58 29
3 3 0 0 0 0 0 6 10 10 10 10 6 10 13 6 6 6 10 10 10 13 23 10 10 16 16 10 10 13 13 16 16 10 13 10 10 10 19 26 42 42 55 32 32 48 23 23 13
0 0 0 0 0 0 6 6 10 13 16 13 6 6 10 6 6 10 10 3 6 13 16 13 23 19 23 13 16 16 16 16 16 19 16 6 3 3 3 10 10 10 6 6 6 10 13 13 13
0 0 0 0 3 3 6 6 6 16 13 13 13 6 6 6 6 3 13 6 16 23 23 19 10 13 13 13 16 19 19 13 10 13 19 10 6 0 0 6 3 3 3 6 6 10 13 13 16
0 0 0 0 3 3 3 3 13 19 13 13 13 10 10 3 6 6 10 10 16 19 16 13 16 13 13 13 13 10 3 16 13 10 19 16 10 3 13 10 13 13 3 6 6 6 10 10 13
0 0 0 0 3 3 3 10 16 16 16 13 13 10 6 6 6 3 10 13 16 16 13 16 16 19 19 16 13 3 10 6 6 6 6 10 13 6 3 6 10 6 6 10 10 13 3 10 13
0 0 0 0 3 3 6 10 13 13 19 19 10 16 10 6 3 6 10 10 13 16 13 19 26 23 23 19 16 3 3 3 6 13 16 13 13 6 6 13 6 6 3 6 10 6 10 10 6
0 0 0 0 3 3 6 6 13 13 13 16 19 13 13 6 3 6 6 6 13 16 16 19 23 23 19 13 13 13 6 13 16 16 16 16 19 16 10 10 6 13 13 6 16 3 6 10 10
0 0 0 0 3 6 6 6 3 13 13 16 19 16 16 10 0 3 6 3 13 10 10 16 16 16 13 13 13 13 13 23 16 26 26 23 23 19 19 16 19 16 13 10 6 6 3 0 6
0 0 0 0 0 0 6 3 3 6 13 16 13 10 10 10 6 3 6 10 10 13 16 13 19 26 26 26 23 16 16 19 23 23 26 29 23 19 16 19 16 13 10 6 10 10 13 6 6
0 0 0 0 0 0 0 0 3 10 16 19 16 10 6 13 13 10 10 10 10 13 16 16 32 29 39 35 29 19 23 16 23 23 29 19 19 13 13 13 13 10 6 6 3 10 13 6 10
0 0 0 0 3 3 0 0 6 10 13 19 16 10 10 10 16 16 16 10 13 13 16 32 29 32 39 35 29 26 26 23 23 19 26 19 13 10 16 13 13 10 13 6 10 6 13 10 6
0 0 0 3 0 0 0 0 3 3 10 16 13 10 10 10 10 13 13 16 19 19 26 39 42 45 48 42 32 32 26 26 26 19 19 23 19 19 16 19 23 16 6 6 6 13 10 10 3
0 0 0 0 0 0 0 0 3 3 6 6 3 10 3 6 10 10 16 16 26 35 35 42 42 45 45 39 32 32 26 19 16 19 23 29 23 23 16 16 19 13 10 10 13 16 16 10 6
0 0 0 0 0 0 0 0 0 3 3 6 10 6 10 6 10 10 6 16 35 39 55 55 48 45 45 39 32 32 29 26 26 26 26 26 23 23 19 19 16 16 13 13 13 16 16 13 13
0 0 0 0 0 0 0 0 0 6 3 6 6 6 10 10 13 10 10 19 35 39 42 48 45 48 52 39 32 26 26 19 23 29 19 23 19 19 16 19 16 16 13 10 13 13 13 19 16
0 0 0 0 0 0 0 3 6 6 6 6 3 6 10 13 13 13 10 10 32 42 42 48 45 42 48 42 32 32 26 23 26 23 26 23 16 16 16 13 13 23 19 19 10 13 16 23 19
0 0 0 0 0 0 0 6 6 3 6 6 10 6 6 13 23 19 16 10 26 39 42 42 42 42 45 45 42 29 26 29 26 19 23 26 19 19 16 13 16 19 23 19 23 16 19 26 19
0 0 0 0 0 0 0 3 3 10 10 6 6 6 13 16 16 19 19 19 26 35 39 39 39 39 48 39 35 29 29 26 29 32 26 26 19 23 23 16 13 16 23 19 23 19 19 23 23
0 0 0 0 0 0 0 0 0 3 6 6 6 13 6 6 16 19 19 26 32 26 35 35 32 32 32 39 39 26 26 26 23 23 23 23 19 19 23 19 23 23 23 29 26 23 23 23 23
0 0 0 0 0 0 0 0 3 3 0 3 3 10 6 10 10 23 26 23 29 26 32 32 29 29 32 35 29 29 23 26 26 26 19 19 16 16 26 23 29 26 26 23 26 29 23 26 23
Height
5907 5906 5906 5906 5905 5904 5902 5901 5900 5899 5899 5898 5897 5896 5896 5895 5894 5895 5892 5890 5889 5888 5888 5888 5889 5889 5889 5889 5890 5891 5891 5892 5893 5893 5894 5895 5895 5895 5895 5896 5896 5896 5895 5895 5896 5896 5896 5896 5896
5909 5908 5908 5907 5905 5905 5904 5903 5902 5901 5901 5899 5899 5898 5896 5895 5894 5893 5891 5891 5890 5889 5889 5889 5889 5889 5890 5891 5891 5892 5892 5893 5894 5894 5895 5895 5896 5896 5896 5897 5897 5897 5896 5896 5897 5897 5897 5897 5897
5910 5909 5910 5909 5907 5906 5906 5905 5904 5903 5902 5901 5900 5899 5898 5897 5895 5893 5892 5892 5891 5890 5891 5890 5889 5890 5891 5892 5892 5893 5893 5894 5895 5895 5896 5896 5897 5897 5896 5897 5897 5897 5897 5897 5897 5897 5897 5897 5897
5913 5912 5912 5910 5908 5907 5907 5906 5905 5904 5904 5902 5901 5900 5899 5898 5896 5895 5894 5893 5893 5892 5892 5891 5890 5890 5892 5893 5894 5894 5895 5895 5895 5896 5896 5897 5897 5897 5897 5898 5898 5898 5898 5898 5898 5898 5898 5898 5897
5914 5914 5913 5911 5910 5909 5908 5908 5908 5907 5906 5903 5902 5902 5901 5899 5898 5897 5896 5895 5895 5894 5894 5893 5891 5891 5894 5895 5896 5896 5896 5896 5896 5897 5897 5897 5898 5898 5898 5898 5898 5899 5899 5898 5898 5898 5898 5898 5898
5917 5916 5914 5913 5913 5912 5911 5910 5910 5909 5907 5905 5904 5903 5901 5900 5899 5898 5897 5897 5896 5896 5896 5896 5896 5896 5896 5897 5897 5897 5897 5898 5898 5898 5898 5898 5898 5898 5899 5899 5899 5899 5899 5899 5899 5899 5898 5898 5898
5919 5917 5915 5915 5915 5914 5913 5913 5912 5911 5909 5907 5906 5905 5903 5902 5901 5900 5899 5899 5899 5899 5899 5898 5898 5898 5898 5898 5898 5899 5899 5899 5899 5899 5899 5899 5898 5899 5899 5899 5900 5900 5900 5900 5899 5899 5899 5898 5898
5919 5919 5917 5917 5916 5916 5916 5915 5914 5913 5911 5909 5907 5906 5905 5904 5903 5902 5901 5901 5900 5900 5900 5900 5900 5900 5900 5900 5900 5900 5900 5900 5900 5900 5900 5899 5899 5899 5900 5900 5900 5900 5900 5900 5899 5899 5899 5899 5898
5921 5921 5919 5918 5919 5918 5918 5917 5916 5914 5912 5910 5909 5908 5907 5906 5905 5904 5903 5902 5902 5902 5901 5901 5901 5901 5901 5901 5901 5901 5901 5901 5901 5900 5900 5900 5900 5900 5900 5900 5900 5900 5900 5900 5899 5899 5899 5898 5898
5922 5921 5921 5921 5921 5920 5919 5919 5917 5915 5914 5912 5911 5910 5908 5907 5906 5906 5905 5904 5904 5903 5903 5902 5902 5902 5902 5902 5902 5902 5902 5902 5902 5902 5901 5901 5901 5900 5900 5900 5900 5900 5900 5900 5899 5899 5899 5898 5898
5923 5923 5923 5922 5922 5921 5920 5920 5919 5918 5916 5915 5913 5912 5910 5909 5908 5907 5907 5906 5906 5905 5905 5904 5904 5903 5903 5903 5903 5903 5903 5903 5903 5902 5902 5901 5901 5901 5900 5900 5900 5900 5900 5899 5899 5899 5899 5898 5898
5925 5925 5924 5924 5923 5923 5922 5921 5920 5919 5918 5916 5915 5913 5912 5911 5910 5909 5908 5908 5907 5907 5906 5906 5905 5905 5904 5904 5904 5904 5904 5904 5904 5903 5903 5902 5902 5901 5900 5900 5900 5899 5899 5899 5899 5899 5898 5898 5898
5926 5926 5925 5924 5924 5924 5923 5923 5922 5920 5919 5917 5916 5915 5914 5913 5911 5911 5910 5910 5909 5908 5908 5907 5906 5906 5905 5905 5905 5905 5905 5905 5904 5904 5903 5903 5902 5901 5901 5900 5900 5900 5899 5899 5899 5899 5898 5898 5898
5926 5926 5926 5925 5925 5925 5924 5924 5923 5921 5920 5918 5917 5916 5915 5914 5913 5912 5911 5911 5910 5910 5909 5908 5907 5907 5906 5906 5906 5906 5905 5905 5905 5904 5904 5903 5902 5902 5901 5901 5900 5900 5900 5899 5899 5899 5898 5898 5898
5927 5926 5927 5926 5926 5925 5925 5924 5923 5922 5921 5920 5919 5918 5916 5915 5914 5913 5913 5912 5911 5911 5910 5909 5908 5907 5907 5907 5906 5906 5906 5906 5905 5905 5904 5903 5903 5902 5901 5900 5900 5900 5899 5899 5899 5898 5898 5898 5897
5926 5927 5927 5927 5926 5925 5926 5925 5924 5923 5922 5921 5920 5918 5917 5916 5915 5914 5914 5913 5912 5911 5911 5910 5909 5908 5908 5907 5907 5907 5907 5906 5906 5905 5904 5903 5903 5902 5901 5900 5900 5899 5899 5899 5898 5898 5898 5897 5897
5926 5926 5927 5927 5926 5925 5925 5924 5924 5923 5922 5921 5920 5919 5918 5917 5916 5915 5914 5914 5913 5912 5911 5911 5910 5909 5909 5908 5908 5908 5907 5906 5905 5905 5904 5903 5902 5901 5900 5899 5899 5898 5898 5898 5897 5897 5897 5896 5896
5925 5925 5926 5926 5925 5925 5924 5924 5923 5922 5922 5922 5921 5920 5919 5918 5917 5916 5915 5915 5914 5913 5912 5911 5911 5910 5909 5909 5908 5908 5907 5906 5905 5904 5904 5903 5902 5901 5900 5899 5898 5897 5897 5897 5896 5896 5896 5895 5895
5924 5924 5924 5924 5924 5923 5923 5923 5922 5921 5921 5921 5921 5920 5919 5918 5918 5917 5916 5915 5914 5913 5913 5912 5911 5910 5909 5909 5908 5907 5906 5905 5904 5903 5902 5902 5900 5899 5899 5898 5897 5896 5895 5895 5894 5894 5894 5893 5893
5921 5922 5923 5923 5922 5921 5921 5921 5920 5920 5921 5920 5920 5919 5918 5918 5918 5917 5916 5915 5915 5914 5913 5912 5911 5910 5909 5908 5907 5906 5905 5904 5903 5902 5901 5900 5899 5898 5897 5896 5895 5894 5893 5893 5893 5893 5892 5891 5891
5919 5920 5920 5921 5920 5920 5920 5920 5920 5919 5919 5918 5919 5919 5918 5918 5917 5917 5916 5915 5914 5914 5913 5912 5911 5910 5909 5908 5907 5906 5905 5903 5902 5901 5900 5898 5897 5896 5895 5894 5893 5893 5892 5892 5891 5890 5890 5889 5888
5916 5917 5918 5918 5918 5918 5919 5918 5918 5917 5917 5917 5917 5917 5917 5916 5916 5915 5915 5914 5913 5913 5912 5911 5910 5909 5908 5907 5906 5904 5903 5902 5901 5900 5898 5897 5896 5894 5893 5892 5892 5891 5890 5890 5889 5888 5887 5887 5886
5913 5914 5915 5916 5916 5916 5916 5916 5917 5915 5915 5915 5915 5915 5915 5915 5914 5914 5914 5913 5912 5911 5910 5909 5908 5908 5906 5905 5904 5903 5901 5900 5899 5898 5896 5895 5894 5893 5891 5890 5890 5889 5888 5887 5886 5886 5885 5884 5883
5910 5911 5912 5913 5913 5913 5913 5913 5913 5913 5912 5912 5912 5912 5912 5913 5913 5913 5912 5911 5910 5909 5909 5908 5906 5906 5904 5903 5902 5901 5900 5898 5897 5896 5894 5893 5892 5890 5889 5888 5887 5886 5885 5884 5883 5882 5882 5881 5880
5907 5908 5909 5909 5909 5909 5910 5910 5910 5910 5909 5909 5909 5909 5909 5909 5910 5910 5910 5909 5908 5907 5907 5906 5905 5904 5902 5901 5900 5899 5897 5896 5895 5893 5892 5891 5889 5888 5887 5885 5884 5883 5882 5881 5880 5879 5878 5878 5877
5903 5904 5905 5905 5905 5906 5906 5906 5907 5906 5906 5906 5906 5906 5906 5906 5906 5907 5907 5906 5906 5905 5904 5904 5903 5902 5900 5899 5898 5896 5895 5893 5892 5890 5889 5888 5887 5885 5884 5883 5881 5880 5879 5878 5877 5876 5875 5874 5873
5898 5900 5901 5901 5901 5901 5901 5902 5902 5902 5903 5902 5902 5902 5902 5903 5903 5904 5904 5903 5903 5902 5901 5900 5900 5899 5898 5896 5895 5893 5892 5890 5888 5887 5886 5885 5883 5882 5881 5879 5878 5877 5875 5874 5873 5872 5871 5870 5869
5894 5896 5897 5897 5897 5896 5897 5897 5898 5899 5899 5899 5898 5898 5898 5899 5899 5900 5900 5900 5899 5899 5898 5897 5896 5896 5895 5893 5891 5890 5888 5887 5885 5884 5882 5881 5879 5878 5877 5875 5874 5873 5872 5870 5869 5867 5866 5865 5864
5889 5890 5890 5891 5892 5892 5892 5895 5894 5895 5895 5894 5894 5894 5893 5895 5895 5896 5895 5895 5895 5895 5894 5893 5892 5892 5891 5889 5888 5886 5884 5882 5881 5880 5878 5877 5875 5874 5873 5871 5870 5869 5867 5866 5865 5863 5861 5860 5859
5882 5884 5885 5886 5887 5887 5887 5891 5890 5890 5890 5890 5891 5891 5891 5891 5892 5891 5891 5890 5890 5890 5889 5889 5888 5887 5886 5885 5884 5882 5880 5878 5876 5875 5873 5872 5871 5869 5868 5866 5865 5864 5862 5861 5860 5858 5856 5855 5853
Wind_Speed
15 15 16 15 16 15 16 16 15 14 14 13 13 12 11 10 10 9 8 8 8 8 8 6 7 7 7 7 7 7 7 7 7 6 6 5 5 5 4 4 4 4 4 4 4 4 4 5 4
15 15 16 17 18 17 17 17 15 14 14 14 13 12 11 10 10 9 9 9 9 9 8 7 7 8 8 8 8 7 7 7 6 6 5 5 5 5 4 4 4 4 5 4 4 4 4 4 3
15 15 15 17 18 17 18 17 16 15 15 14 13 12 11 11 11 11 10 10 10 10 9 8 8 8 8 9 8 8 7 7 6 5 5 5 5 4 4 4 3 4 4 4 4 4 4 3 3
16 16 16 18 18 18 18 18 18 16 15 14 13 12 12 12 11 11 11 11 11 10 10 9 9 8 8 9 8 8 7 6 6 5 5 4 4 3 3 3 3 3 3 3 3 3 3 3 2
15 16 16 17 18 19 18 19 17 16 15 15 14 14 13 13 13 11 11 11 11 11 11 11 11 10 10 10 9 9 8 7 6 5 4 4 3 3 3 3 3 3 4 4 4 3 3 2 2
15 16 17 17 17 17 17 17 17 15 15 15 15 15 14 14 13 12 12 12 12 11 11 11 11 10 10 9 9 9 8 7 6 5 4 4 4 4 4 4 4 3 3 3 3 3 2 2 2
15 16 17 16 16 16 17 16 16 16 15 15 15 15 15 15 14 13 12 12 12 11 11 10 10 9 9 9 8 8 8 7 7 6 6 6 5 5 4 4 3 3 2 2 2 2 2 2 2
14 15 16 16 15 16 16 15 15 15 15 15 16 15 14 14 14 13 12 12 11 11 10 10 10 9 8 8 8 8 7 7 7 6 6 6 6 5 4 3 3 2 1 1 2 2 2 2 2
13 14 16 15 15 15 15 14 15 15 15 16 15 14 14 14 14 13 12 12 12 11 10 10 10 9 9 8 8 8 7 7 7 6 5 5 5 5 4 3 2 2 1 1 1 2 1 2 2
12 13 13 13 12 14 14 14 15 15 15 16 15 14 14 13 13 13 13 12 12 12 10 9 9 9 8 8 7 8 7 7 7 6 6 6 5 5 4 3 2 2 2 1 1 1 1 1 1
10 11 11 12 13 14 14 14 14 15 14 14 15 14 14 13 13 13 12 12 12 12 11 10 9 9 8 7 7 7 7 7 6 6 7 6 5 4 4 4 3 2 2 1 1 1 1 1 1
9 9 9 10 12 13 13 12 13 13 13 13 14 14 14 13 12 12 11 12 12 12 11 10 9 8 8 7 7 7 7 6 6 5 6 6 5 4 4 4 3 2 2 2 2 1 1 1 1
8 8 9 9 10 11 11 12 13 12 11 12 12 13 12 12 12 12 11 11 11 11 11 11 9 8 7 7 7 7 7 7 7 6 5 5 5 4 4 3 3 3 2 2 2 2 2 2 1
5 6 7 8 9 10 10 11 12 12 11 11 11 11 11 11 11 11 11 11 11 10 11 10 10 8 7 7 7 6 6 6 6 6 5 5 5 4 4 3 3 3 3 3 3 3 2 1 1
3 4 5 6 8 8 9 11 11 11 11 11 10 10 10 10 10 10 10 10 10 11 11 10 10 9 8 7 6 6 6 6 6 5 5 5 5 5 4 3 2 2 2 2 2 2 1 1 1
3 2 2 5 6 6 7 9 10 10 10 10 9 9 10 10 10 10 9 10 10 10 10 10 9 8 8 7 6 5 5 5 5 5 5 4 4 4 4 3 2 2 1 1 1 1 1 1 2
3 2 2 3 4 5 5 7 7 8 9 10 9 9 10 10 9 9 9 9 9 9 9 9 9 8 7 6 6 5 5 5 5 5 4 4 4 4 5 4 3 2 2 2 2 2 2 2 3
3 2 1 3 4 5 5 6 5 6 6 8 8 8 8 9 8 8 8 8 8 8 9 8 8 8 7 6 6 5 5 5 4 4 4 4 5 5 5 5 4 3 3 3 3 3 4 4 4
5 5 4 3 4 6 7 7 6 4 6 6 6 6 7 7 7 7 7 7 7 7 8 8 8 7 7 7 6 6 5 5 5 5 5 5 5 6 6 6 6 4 4 4 4 4 4 5 5
8 7 6 5 6 7 8 8 7 5 6 6 5 4 5 6 6 6 6 6 6 6 7 7 7 7 7 7 6 6 6 6 6 6 6 6 6 6 6 6 6 6 6 6 6 5 5 5 6
10 8 8 8 7 8 10 9 10 8 6 5 4 4 4 5 5 5 5 6 6 6 7 7 7 7 7 7 7 7 7 7 7 7 7 7 6 6 7 7 7 7 7 7 7 6 6 7 7
11 8 9 10 9 10 11 12 9 8 7 6 5 5 5 4 4 4 5 5 5 6 6 7 7 7 7 7 8 8 7 7 8 8 7 7 7 7 7 7 7 7 7 7 7 8 7 7 7
12 10 12 12 12 12 12 11 9 9 8 7 6 6 6 4 4 4 4 5 5 6 7 7 8 7 8 8 8 8 8 8 8 8 8 8 8 8 7 7 7 7 7 7 7 8 8 8 8
12 13 15 15 15 16 14 15 12 10 9 9 7 7 6 4 5 6 5 5 6 7 7 8 9 9 9 8 9 9 8 9 9 9 9 9 9 9 9 8 8 8 8 8 8 9 9 10 10
14 16 17 17 17 16 15 15 13 12 10 9 8 8 8 6 6 6 6 6 7 8 9 9 9 9 10 10 10 10 10 10 10 10 10 10 10 10 9 9 9 10 10 10 10 10 11 11 11
16 18 19 19 17 16 15 16 13 12 11 10 10 10 9 8 7 7 7 8 8 9 9 10 10 10 11 11 11 11 11 11 11 11 11 11 11 11 11 10 10 11 11 11 12 12 12 12 13
17 19 18 19 18 18 17 16 15 13 12 12 11 11 10 10 10 10 9 10 10 10 11 11 11 12 11 12 12 12 12 13 13 13 13 12 12 12 13 13 12 12 12 13 13 13 13 13 14
19 18 19 20 19 20 19 17 16 13 12 13 13 14 13 13 12 11 11 12 12 13 13 13 13 14 14 14 14 13 14 14 14 15 15 14 14 14 14 13 14 14 14 14 14 14 14 14 15
22 21 22 22 21 21 21 19 16 16 15 15 15 15 14 15 13 12 12 13 14 15 15 16 16 16 15 15 15 15 15 16 15 15 16 15 16 16 15 15 15 15 15 16 16 17 17 17 17
24 24 24 24 24 23 23 22 19 19 17 16 16 16 17 17 16 15 14 16 16 17 17 17 18 18 17 17 17 18 18 18 17 17 17 17 17 17 17 18 18 18 18 18 19 19 19 19 19
Wind_Direction
69 66 64 60 60 58 52 53 52 55 54 51 47 47 47 50 54 60 66 66 66 66 76 81 77 85 86 92 102 112 118 121 120 118 115 122 123 114 104 101 106 108 108 111 125 125 123 124 125
67 65 59 60 62 61 56 53 53 52 53 51 48 51 50 52 58 64 66 67 69 71 73 71 74 79 89 94 102 106 110 115 118 118 117 119 117 107 104 105 102 101 101 104 106 114 122 123 120
64 63 57 58 62 59 56 54 52 49 48 50 48 49 52 58 63 65 71 71 71 69 71 78 79 86 91 89 94 100 109 105 110 116 120 115 111 106 116 113 108 104 100 105 105 110 116 121 113
64 64 61 58 60 55 54 52 49 48 48 50 49 52 58 64 65 65 69 72 73 73 73 76 79 93 99 95 93 96 97 100 106 120 118 114 110 109 122 124 110 102 95 96 106 112 115 116 118
68 66 61 52 53 53 53 53 50 47 45 48 52 55 61 66 67 64 65 69 73 75 76 77 80 96 99 93 89 90 89 94 104 112 108 104 103 110 118 116 101 94 93 86 79 80 108 121 114
71 66 58 50 48 49 53 51 49 48 47 49 52 52 58 65 63 63 66 69 73 76 78 77 79 88 87 86 83 82 82 83 88 101 98 100 96 105 107 101 95 88 84 83 87 79 102 119 115
67 62 56 54 49 46 48 48 47 48 48 49 50 52 54 60 64 63 65 70 74 77 79 79 80 82 83 80 77 78 79 76 77 82 85 81 81 89 100 89 83 79 82 80 85 90 104 120 121
66 57 54 53 48 45 46 45 45 46 49 51 49 50 51 53 59 63 66 68 73 77 79 80 81 80 80 78 80 82 81 78 77 80 80 77 78 86 92 87 82 76 76 82 97 88 91 94 101
65 57 52 47 45 43 44 43 44 50 50 49 50 50 50 53 57 64 67 68 71 76 78 78 75 77 78 79 81 85 84 80 77 76 74 69 74 76 74 76 80 79 77 74 96 104 84 82 91
70 54 44 43 41 39 40 39 39 42 48 50 51 51 50 53 58 63 67 68 68 69 73 75 75 77 78 77 79 76 75 70 70 71 64 60 65 68 73 79 88 95 88 67 64 69 78 85 86
76 62 48 41 41 40 39 38 38 41 42 45 47 47 49 53 58 62 65 67 68 66 66 70 75 78 79 77 75 73 69 66 64 66 65 59 61 67 71 75 80 86 79 70 66 48 66 87 90
81 68 53 48 48 47 44 39 38 42 41 43 46 47 48 52 55 60 62 64 66 68 68 67 72 76 75 75 75 74 72 65 61 65 64 61 59 63 61 67 66 82 87 71 58 55 68 93 125
85 73 60 53 45 41 41 36 38 39 40 43 46 46 47 49 53 58 62 63 66 68 68 66 67 72 71 72 74 73 68 60 54 59 62 57 52 54 53 58 68 82 85 68 64 63 73 70 65
99 85 62 50 44 40 36 31 31 35 36 39 44 43 43 42 47 54 60 62 64 66 63 60 61 71 71 75 79 74 63 54 48 50 55 52 47 51 54 57 64 75 81 68 69 63 61 55 61
113 86 64 40 35 35 30 30 39 39 37 35 38 39 39 39 46 53 56 57 58 61 60 58 56 60 66 75 78 73 59 49 40 41 46 47 44 41 40 49 55 59 66 65 57 43 23 23 23
141 108 61 23 29 28 19 21 36 36 31 26 30 34 37 41 45 50 53 52 52 53 55 54 54 57 62 66 72 65 53 43 36 34 32 28 27 22 17 16 25 20 7 16 357 343 357 346 343
157 120 58 3 0 8 15 12 18 24 24 22 25 31 36 38 39 41 46 50 50 50 52 53 53 55 59 59 60 49 39 30 26 23 20 11 4 359 359 358 358 349 324 308 302 305 305 306 313
176 213 291 326 324 337 350 350 10 14 17 17 21 27 35 34 31 34 39 47 50 48 47 48 49 51 52 49 43 34 26 14 6 6 4 355 346 341 342 350 347 330 311 297 296 294 289 292 295
211 232 254 282 301 316 327 330 337 355 3 2 11 23 28 29 26 26 32 39 40 41 39 38 40 41 39 35 29 21 15 6 359 348 338 335 336 332 329 333 339 325 313 301 295 296 288 286 289
224 234 250 275 296 312 314 320 326 335 352 352 358 4 14 12 10 15 19 24 25 24 24 24 26 26 23 17 11 6 3 360 354 345 336 331 329 331 339 335 331 324 309 312 308 301 295 289 288
223 239 263 275 279 282 294 303 310 311 319 327 337 341 351 350 357 1 1 9 9 7 5 6 6 7 5 2 357 352 350 347 346 341 338 336 329 331 333 332 329 323 313 303 297 295 291 292 293
231 242 264 276 272 272 280 290 294 300 305 301 304 309 315 324 338 347 347 351 356 353 349 350 348 350 350 350 347 342 339 339 342 339 329 329 325 324 325 325 324 320 309 302 298 299 293 295 297
235 248 259 266 269 264 267 279 276 282 289 298 307 302 299 299 317 320 319 329 338 338 338 341 335 337 337 334 335 335 332 333 334 335 330 323 322 322 320 317 319 320 313 305 300 300 297 297 295
238 246 251 256 257 259 261 273 271 278 283 287 297 298 286 276 303 309 308 316 326 327 327 329 331 329 331 330 327 327 325 326 326 324 323 321 319 316 316 315 312 309 306 303 301 299 297 293 293
236 245 249 252 254 261 263 268 271 272 277 277 286 294 286 281 293 299 302 304 311 314 316 317 320 320 321 322 322 323 319 316 316 316 317 315 312 311 311 307 303 301 298 297 298 299 297 296 294
236 244 248 254 259 263 262 265 266 271 265 266 274 284 286 299 292 295 290 297 303 304 306 309 310 312 312 315 317 321 319 315 309 310 310 307 303 302 303 303 302 301 295 290 291 295 294 294 293
238 240 247 255 262 264 268 273 266 267 263 263 269 276 282 291 291 292 291 297 301 303 303 302 304 305 304 306 309 315 315 313 311 308 306 302 299 297 297 297 297 298 297 294 292 291 291 291 292
238 243 245 251 258 263 269 275 270 266 272 270 273 283 281 288 287 285 285 289 295 298 298 299 298 300 302 303 303 309 309 306 304 305 305 300 295 295 296 296 297 297 295 295 296 295 295 293 291
233 236 242 249 255 260 268 272 271 270 269 270 277 282 281 282 280 280 281 287 293 292 294 295 295 295 297 301 302 305 306 303 302 302 300 297 295 295 295 293 291 292 290 291 292 292 292 291 291
234 236 242 247 250 255 263 268 268 271 266 268 274 279 283 280 277 279 282 285 287 288 288 290 292 293 295 298 298 301 300 298 296 296 296 294 293 292 291 290 288 287 287 287 288 290 291 291 290